Other Surface Observations
Issued by NWS Charleston, SC

Home | Current Version | Previous Version | Text Only | Print | Product List | Glossary On
Versions: 1 2 3 4 5 6 7 8 9 10 11 12 13 14 15 16 17 18 19 20 21 22 23 24 25 26 27 28 29 30 31 32 33 34 35 36 37 38 39 40 41 42 43 44 45 46 47 48 49 50
344
SXUS52 KCHS 220325
OSOCHS

MARINE OBSERVATIONS
NATIONAL WEATHER SERVICE CHARLESTON SC
1000 PM EST TUE FEB 21 2017

...DOWNTOWN CHARLESTON AND HARBOR...

CITY           SKY/WX    TMP DP  RH WIND       PRES   REMARKS
WATERFRONT PRK   N/A     62  60  93 NE6       30.05F

...LAKE MOULTRIE...

CITY           SKY/WX    TMP DP  RH WIND       PRES   REMARKS
PINOPOLIS        N/A     59  57  94 E5        29.98F

...LAKE AND SUPPLEMENTAL COASTAL OBSERVATIONS...

STATION/POSITION TIME  TEMP    WIND        PRES    WAVE   SWELL
                       AIR SEA DIR/SP/G            HT/PER HT/PER/DIR
                 (UTC) (F)     (DEG/KT/KT) (MB)    (FT/S) (FT/S/D)
FORT PULASKI     0300   67 61  130/ 10/ 17 1016.2
SAPELO ISLAND    0300   65     140/  5     1016.0
WINYAH BAY       0230   58      50/  6     1019.0S
LAKE MURRAY      0250   62     100/  8/ 10 1017.3S
ACE BASIN NERRS  0245   62      70/  2     1017.0S


...C-MAN AND BUOY OBSERVATIONS...

STATION/POSITION TIME  TEMP    WIND        PRES    WAVE   SWELL
                       AIR SEA DIR/SP/G            HT/PER HT/PER/DIR
                 (UTC) (F)     (DEG/KT/KT) (MB)    (FT/S) (FT/S/D)
BUOY 41004       0250   70 69  130/ 14/ 16 1017.3F   4/ 5   2/120/12
BUOY 41008       0250   66 63  120/ 10/ 10 1015.6F   3/ 5   3/110/ 5
FOLLY BEACH CMAN 0300   61      50/  8/  9 1018.1F
CAPERS NS BUOY   0308   61 59   60/  6/ 10 1017.7F
FRIPP NS BUOY    0308   63 61  100/ 10/ 12 1016.2F
5E ST. MARYS GA  0300      64                N/A     3/ 6


STATION/POSITION TIME  TEMP    WIND        PRES    WAVE   SWELL
                       AIR SEA DIR/SP/G            HT/PER HT/PER/DIR
                 (UTC) (F)     (DEG/KT/KT) (MB)    (FT/S) (FT/S/D)
FRYING PAN BUOY  0310   68 68  100/ 16/ 19 1019.0
BUOY 41025       0250   63 74  140/ 12/ 16 1021.3R   4/10   3/ 40/10
CAPE LOOKOUT NC  0300   62     110/  7/  8 1020.3F
BUOY 41002       0250   64 71   80/ 12/ 16 1020.1F   5/ 8   3/ 30/ 8
BUOY 41010       NOT AVBL
ST AUGUSTINE FL  0300   69 68  130/ 13/ 15 1015.6F

$$




USA.gov is the U.S. government's official web portal to all federal, state and local government web resources and services.